Stirum, ND

6:37 PM CDT on September 30, 2016 (GMT -0500)
Gwinner-melroe

Weather History for KGWR - January, 2014

Change the Weather History Date:

Thursday, January 23, 2014

  Actual Average (KP67) Record (KP67)
Temperature  
Mean Temperature 2 °F -  
Max Temperature 19 °F 13 °F 27 °F (1998)
Min Temperature -14 °F 0 °F -14 °F (1997)
Degree Days  
Heating Degree Days 64    
Moisture  
Dew Point -10 °F    
Average Humidity 64    
Maximum Humidity 72    
Minimum Humidity 55    
Precipitation  
Precipitation 0.00 in - - ()
Sea Level Pressure  
Sea Level Pressure 30.49 in    
Wind  
Wind Speed 14 mph (WSW)    
Max Wind Speed 33 mph    
Max Gust Speed 40 mph    
Visibility 10 miles    
Events      
Averages and records for this station are not official NWS values.
T = Trace of Precipitation, MM = Missing Value Source: NWS Daily Summary

Daily Weather History Graph

Daily Weather History Graph

Search for Another Location

Airport or City:

Trip Planner

Search our weather history database for the weather conditions in past years. The results will help you decide how hot, cold, wet, or windy it might be!

Date:

Astronomy

Jan. 23, 2014 Rise Set
Actual Time 8:03 AM CST 5:22 PM CST
Civil Twilight 7:30 AM CST 5:55 PM CST
Nautical Twilight 6:53 AM CST 6:31 PM CST
Astronomical Twilight 6:18 AM CST 7:07 PM CST
Moon 12:19 AM CST (1/23) 11:12 AM CST (1/23)
Length of Visible Light 10h 25m
Length of Day
9h 19m
Waning Gibbous, 55% of the Moon is Illuminated
Jan 23
Waning Gibbous
Jan 23
Last Quarter
Jan 30
New
Feb 6
First Quarter
Feb 14
Full

Hourly Weather History & Observations

Time (CST) Temp. Windchill Dew Point Humidity Pressure Visibility Wind Dir Wind Speed Gust Speed Precip Events Conditions
12:15 AM -7.6 °F -27.5 °F -16.6 °F 65% 30.65 in 10.0 mi NW 12.7 mph - 0.00 in   Clear
12:35 AM -7.6 °F -27.5 °F -16.6 °F 65% 30.65 in 10.0 mi NW 12.7 mph - 0.00 in   Clear
12:55 AM -7.6 °F -26.6 °F -16.6 °F 65% 30.65 in 10.0 mi NW 11.5 mph - 0.00 in   Clear
1:15 AM -9.4 °F -28.9 °F -16.6 °F 71% 30.66 in 10.0 mi NW 11.5 mph - 0.00 in   Clear
1:35 AM -9.4 °F -29.8 °F -16.6 °F 71% 30.66 in 10.0 mi NW 12.7 mph - 0.00 in   Clear
1:55 AM -9.4 °F -28.9 °F -18.4 °F 65% 30.66 in 10.0 mi NW 11.5 mph - 0.00 in   Clear
2:15 AM -9.4 °F -29.8 °F -16.6 °F 71% 30.67 in 10.0 mi NW 12.7 mph - 0.00 in   Clear
2:35 AM -9.4 °F -28.9 °F -18.4 °F 65% 30.68 in 10.0 mi NW 11.5 mph - 0.00 in   Clear
2:55 AM -9.4 °F -29.8 °F -16.6 °F 71% 30.69 in 10.0 mi NW 12.7 mph - 0.00 in   Clear
3:15 AM -9.4 °F -28.9 °F -16.6 °F 71% 30.69 in 10.0 mi NW 11.5 mph - 0.00 in   Clear
3:35 AM -9.4 °F -29.8 °F -16.6 °F 71% 30.69 in 10.0 mi NW 12.7 mph - 0.00 in   Clear
3:55 AM -9.4 °F -27.9 °F -16.6 °F 71% 30.69 in 10.0 mi WNW 10.4 mph - 0.00 in   Clear
4:15 AM -9.4 °F -28.9 °F -16.6 °F 71% 30.69 in 10.0 mi WNW 11.5 mph - 0.00 in   Clear
4:35 AM -9.4 °F -28.9 °F -18.4 °F 65% 30.70 in 10.0 mi WNW 11.5 mph - 0.00 in   Clear
4:55 AM -9.4 °F -29.8 °F -18.4 °F 65% 30.70 in 10.0 mi WNW 12.7 mph - 0.00 in   Clear
5:15 AM -9.4 °F -28.9 °F -18.4 °F 65% 30.70 in 10.0 mi WNW 11.5 mph - 0.00 in   Clear
5:35 AM -9.4 °F -27.9 °F -18.4 °F 65% 30.70 in 10.0 mi WNW 10.4 mph - 0.00 in   Clear
5:55 AM -9.4 °F -26.8 °F -18.4 °F 65% 30.70 in 10.0 mi WNW 9.2 mph - 0.00 in   Clear
6:15 AM -9.4 °F -27.9 °F -18.4 °F 65% 30.71 in 10.0 mi WNW 10.4 mph - 0.00 in   Clear
6:35 AM -11.2 °F -27.8 °F -18.4 °F 70% 30.71 in 10.0 mi WNW 8.1 mph - 0.00 in   Clear
6:55 AM -13.0 °F -28.6 °F -20.2 °F 70% 30.71 in 10.0 mi SW 6.9 mph - 0.00 in   Clear
7:15 AM -14.8 °F -32.2 °F -22.0 °F 70% 30.72 in 10.0 mi SW 8.1 mph - 0.00 in   Clear
7:35 AM -13.0 °F -32.4 °F -22.0 °F 64% 30.71 in 10.0 mi WSW 10.4 mph - 0.00 in   Clear
7:55 AM -13.0 °F -30.0 °F -22.0 °F 64% 30.71 in 10.0 mi WSW 8.1 mph - 0.00 in   Clear
8:15 AM -13.0 °F -28.6 °F -22.0 °F 64% 30.71 in 10.0 mi SSW 6.9 mph - 0.00 in   Clear
8:35 AM -13.0 °F -31.3 °F -22.0 °F 64% 30.71 in 10.0 mi WSW 9.2 mph - 0.00 in   Clear
8:55 AM -13.0 °F -32.4 °F -20.2 °F 70% 30.70 in 10.0 mi West 10.4 mph - 0.00 in   Clear
9:15 AM - - - N/A% 30.70 in 10.0 mi WSW 8.1 mph - 0.00 in   Clear
9:35 AM -9.4 °F -24.3 °F -18.4 °F 65% 30.70 in 10.0 mi WSW 6.9 mph - 0.00 in   Clear
9:55 AM -7.6 °F -25.7 °F -16.6 °F 65% 30.70 in 10.0 mi West 10.4 mph - 0.00 in   Clear
10:15 AM -7.6 °F -25.7 °F -16.6 °F 65% 30.69 in 10.0 mi WSW 10.4 mph - 0.00 in   Clear
10:35 AM -5.8 °F -22.4 °F -14.8 °F 65% 30.68 in 10.0 mi WSW 9.2 mph - 0.00 in   Clear
10:55 AM -4.0 °F -23.7 °F -14.8 °F 60% 30.67 in 10.0 mi WSW 13.8 mph - 0.00 in   Clear
11:15 AM -2.2 °F -22.2 °F -13.0 °F 60% 30.67 in 10.0 mi SW 15.0 mph - 0.00 in   Clear
11:35 AM -0.4 °F -19.2 °F -13.0 °F 55% 30.66 in 10.0 mi SW 13.8 mph - 0.00 in   Clear
11:55 AM -0.4 °F -19.9 °F -13.0 °F 55% 30.64 in 10.0 mi SW 15.0 mph - 0.00 in   Clear
12:15 PM -0.4 °F -19.9 °F -11.2 °F 60% 30.62 in 10.0 mi SW 15.0 mph - 0.00 in   Clear
12:35 PM 1.4 °F -18.8 °F -9.4 °F 61% 30.60 in 10.0 mi SW 17.3 mph - 0.00 in   Clear
12:55 PM 1.4 °F -19.4 °F -9.4 °F 61% 30.59 in 10.0 mi SW 18.4 mph - 0.00 in   Clear
1:15 PM 3.2 °F -15.3 °F -9.4 °F 56% 30.57 in 10.0 mi SSW 15.0 mph - 0.00 in   Clear
1:35 PM 3.2 °F -16.5 °F -7.6 °F 61% 30.56 in 10.0 mi SSW 17.3 mph - 0.00 in   Clear
1:55 PM 3.2 °F -17.6 °F -7.6 °F 61% 30.54 in 10.0 mi SSW 19.6 mph - 0.00 in   Clear
2:15 PM 3.2 °F -16.5 °F -7.6 °F 61% 30.52 in 10.0 mi SW 17.3 mph - 0.00 in   Clear
2:35 PM 3.2 °F -17.1 °F -7.6 °F 61% 30.50 in 10.0 mi SSW 18.4 mph - 0.00 in   Clear
2:55 PM 5.0 °F -14.7 °F -5.8 °F 61% 30.48 in 10.0 mi SSW 18.4 mph - 0.00 in   Clear
3:15 PM 5.0 °F -15.2 °F -5.8 °F 61% 30.47 in 10.0 mi SSW 19.6 mph - 0.00 in   Clear
3:35 PM 5.0 °F -15.2 °F -5.8 °F 61% 30.45 in 10.0 mi SSW 19.6 mph - 0.00 in   Clear
3:55 PM 5.0 °F -16.2 °F -5.8 °F 61% 30.42 in 10.0 mi SSW 21.9 mph - 0.00 in   Clear
4:15 PM 5.0 °F -14.2 °F -5.8 °F 61% 30.42 in 10.0 mi SSW 17.3 mph - 0.00 in   Clear
4:35 PM 5.0 °F -14.7 °F -4.0 °F 66% 30.40 in 10.0 mi SSW 18.4 mph - 0.00 in   Clear
4:55 PM 5.0 °F -14.7 °F -4.0 °F 66% 30.37 in 10.0 mi SSW 18.4 mph - 0.00 in   Clear
5:15 PM 5.0 °F -15.7 °F -4.0 °F 66% 30.36 in 10.0 mi SSW 20.7 mph - 0.00 in   Clear
5:35 PM 5.0 °F -14.7 °F -4.0 °F 66% 30.34 in 10.0 mi SSW 18.4 mph - 0.00 in   Clear
5:55 PM 5.0 °F -15.7 °F -2.2 °F 72% 30.32 in 10.0 mi SSW 20.7 mph 26.5 mph 0.00 in   Clear
6:15 PM 6.8 °F -14.3 °F -2.2 °F 67% 30.28 in 10.0 mi SSW 23.0 mph 28.8 mph 0.00 in   Clear
6:35 PM 6.8 °F -15.5 °F -0.4 °F 72% 30.24 in 10.0 mi SSW 26.5 mph 29.9 mph 0.00 in   Clear
6:55 PM 8.6 °F -11.9 °F -0.4 °F 67% 30.22 in 10.0 mi SSW 23.0 mph 28.8 mph 0.00 in   Clear
7:15 PM 10.4 °F -11.4 °F -0.4 °F 62% 30.20 in 10.0 mi SSW 28.8 mph 32.2 mph 0.00 in   Clear
7:35 PM 10.4 °F -10.7 °F 1.4 °F 67% 30.19 in 10.0 mi SSW 26.5 mph 32.2 mph 0.00 in   Clear
7:55 PM 12.2 °F -7.5 °F 1.4 °F 62% 30.17 in 10.0 mi SSW 24.2 mph 28.8 mph 0.00 in   Clear
8:15 PM 12.2 °F -8.2 °F 1.4 °F 62% 30.14 in 10.0 mi SW 26.5 mph 31.1 mph 0.00 in   Clear
8:55 PM 14.0 °F -6.2 °F 3.2 °F 62% 30.07 in 10.0 mi SSW 27.6 mph 34.5 mph 0.00 in   Clear
9:15 PM 14.0 °F -7.1 °F 3.2 °F 62% 30.05 in 10.0 mi SW 31.1 mph 35.7 mph 0.00 in   Partly Cloudy
9:55 PM 15.8 °F -4.4 °F 3.2 °F 58% 30.00 in 10.0 mi SSW 29.9 mph 35.7 mph 0.00 in   Clear
10:15 PM 17.6 °F -2.8 °F 5.0 °F 58% 29.96 in 4.0 mi SW 33.4 mph 40.3 mph 0.00 in   Clear
10:35 PM 17.6 °F -1.6 °F 5.0 °F 58% 29.95 in 9.0 mi SW 28.8 mph 34.5 mph 0.00 in   Scattered Clouds
10:55 PM 17.6 °F -1.3 °F 5.0 °F 58% 29.93 in 6.0 mi SW 27.6 mph 35.7 mph 0.00 in   Mostly Cloudy
11:15 PM 17.6 °F -1.3 °F 5.0 °F 58% 29.91 in 10.0 mi SW 27.6 mph 35.7 mph 0.00 in   Scattered Clouds
11:35 PM 17.6 °F 0.5 °F 6.8 °F 63% 29.91 in 10.0 mi SW 21.9 mph 29.9 mph 0.00 in   Clear
11:55 PM 19.4 °F 1.4 °F 8.6 °F 63% 29.88 in 10.0 mi SW 26.5 mph 32.2 mph 0.00 in   Scattered Clouds